TimeEST,TemperatureF,Dew PointF,Humidity,Sea Level PressureIn,VisibilityMPH,Wind Direction,Wind SpeedMPH,Gust SpeedMPH,PrecipitationIn,Events,Conditions,WindDirDegrees,DateUTC
12:56 AM,25.0,21.0,85,30.05,6.0,NNW,4.6,-,0.00,,Overcast,340,2013-02-03 05:56:00
1:56 AM,25.0,21.0,85,30.04,6.0,Calm,Calm,-,0.00,Snow,Light Snow,0,2013-02-03 06:56:00
3:56 AM,21.9,19.0,89,29.99,10.0,Calm,Calm,-,N/A,,Mostly Cloudy,0,2013-02-03 08:56:00
4:56 AM,23.0,19.0,85,29.96,7.0,Calm,Calm,-,0.00,,Overcast,0,2013-02-03 09:56:00
6:56 AM,23.0,19.9,88,29.98,10.0,Calm,Calm,-,N/A,,Overcast,0,2013-02-03 11:56:00
7:56 AM,25.0,21.0,85,29.98,10.0,Calm,Calm,-,N/A,,Overcast,0,2013-02-03 12:56:00
8:30 AM,26.6,23.0,86,29.96,10.0,Calm,Calm,-,N/A,,Mostly Cloudy,0,2013-02-03 13:30:00
8:56 AM,27.0,21.0,78,29.96,10.0,Calm,Calm,-,N/A,,Mostly Cloudy,0,2013-02-03 13:56:00
9:56 AM,28.0,16.0,61,29.93,10.0,Variable,5.8,-,N/A,,Partly Cloudy,0,2013-02-03 14:56:00
10:56 AM,30.0,17.1,59,29.91,10.0,North,4.6,-,N/A,,Overcast,360,2013-02-03 15:56:00
11:56 AM,32.0,18.0,56,29.87,10.0,North,5.8,-,N/A,,Clear,360,2013-02-03 16:56:00
12:56 PM,30.0,19.9,66,29.83,10.0,North,5.8,-,N/A,,Scattered Clouds,360,2013-02-03 17:56:00
1:56 PM,30.9,19.9,64,29.81,10.0,NW,8.1,-,N/A,,Partly Cloudy,320,2013-02-03 18:56:00
2:56 PM,30.0,17.1,59,29.80,10.0,NNW,6.9,-,N/A,,Clear,340,2013-02-03 19:56:00
3:56 PM,30.0,12.9,49,29.78,10.0,NNW,9.2,-,N/A,,Scattered Clouds,330,2013-02-03 20:56:00
4:56 PM,28.9,15.1,56,29.78,10.0,NW,4.6,-,N/A,,Partly Cloudy,320,2013-02-03 21:56:00
5:56 PM,28.0,16.0,61,29.79,10.0,West,3.5,-,N/A,,Clear,280,2013-02-03 22:56:00
6:56 PM,28.0,17.1,63,29.80,10.0,West,3.5,-,N/A,,Scattered Clouds,270,2013-02-03 23:56:00
7:56 PM,26.1,16.0,66,29.80,10.0,West,4.6,-,N/A,,Clear,270,2013-02-04 00:56:00
8:56 PM,25.0,16.0,69,29.81,10.0,West,5.8,-,N/A,,Clear,280,2013-02-04 01:56:00
9:56 PM,24.1,16.0,71,29.82,10.0,West,5.8,-,N/A,,Clear,280,2013-02-04 02:56:00
10:56 PM,23.0,15.1,72,29.82,10.0,West,4.6,-,N/A,,Clear,270,2013-02-04 03:56:00
11:56 PM,21.0,15.1,78,29.81,10.0,Calm,Calm,-,N/A,,Clear,0,2013-02-04 04:56:00